Location: Allonne
(49.4086°N, 2.1143°E)
Time: 02:57:40
(UTC+00:00)

SO-50 - Pass Details

Date: 06 December 2023
Orbit: 608 x 660 km, 64.6° (Epoch: 04 March)

Event Time Altitude Azimuth Distance (km) Brightness Sun altitude
Exits shadow 05:18:05 22° 347° (NNW) 1,418 ? -20.7°
Drops below altitude 10° 05:20:56 10° 24° (NNE) 2,043 ? -20.3°
Sets 05:23:37 0° 39° (NE) 2,944 ? -19.8°
